This demonstration page uses our WeatherBlox Daily Observations layout. Learn more.

Left ArrowRight Arrow

39.12711, -84.51439

Hourly Observations for November 26, 2022

Temp ( °F °C ) Dew Point ( °F °C ) Humidity (%) Winds ( mph kmh ) Pressure ( in mb ) Visibility ( mi km ) Precip ( " mm )
12:22 am 00:22 Clear with Mist and Fog 29 -1.7 29 -1.7 100 100 NE 3 6 30.26 1025 1 1 0.00 0.00
12:34 am 00:34 Clear with Mist and Fog 29 -1.7 28 -2.2 96 96 NE 3 6 30.27 1025 2 3 0.00 0.00
12:43 am 00:43 Clear with Mist and Fog 29 -1.7 29 -1.7 100 100 Calm 30.27 1025 3 5 0.00 0.00
12:58 am 00:58 Clear with Mist and Fog 28 -2.2 26 -3.3 92 92 Calm 30.27 1025 2 3 0.00 0.00
1:09 am 01:09 Clear with Freezing Fog 29 -1.7 28 -2.2 96 96 Calm 30.26 1025 1 1 0.00 0.00
1:40 am 01:40 Clear with Mist and Fog 28 -2.2 25 -3.9 88 88 Calm 30.26 1025 2 3 0.00 0.00
1:53 am 01:53 Mostly Clear with Mist and Fog 28 -2.2 26 -3.3 92 92 Calm 30.24 1024 1 1 0.00 0.00
1:57 am 01:57 Partly Cloudy with Mist and Fog 29 -1.7 27 -2.8 92 92 Calm 30.26 1025 1 2 0.00 0.00
2:00 am 02:00 Partly Cloudy with Mist and Fog 29 -1.7 27 -2.8 92 92 Calm 30.26 1025 3 5 0.00 0.00
2:11 am 02:11 Mostly Clear with Mist and Fog 27 -2.8 26 -3.3 96 96 Calm 30.26 1025 1 1 0.00 0.00
2:20 am 02:20 Mostly Clear with Freezing Fog 27 -2.8 26 -3.3 96 96 Calm 30.26 1025 0 0 0.00 0.00
2:28 am 02:28 Clear with Freezing Fog 28 -2.2 28 -2.2 100 100 Calm 30.26 1025 1 1 0.00 0.00
2:53 am 02:53 Mostly Clear with Freezing Fog 26 -3.3 24 -4.4 92 92 Calm 30.24 1024 0 0 0.00 0.00
3:21 am 03:21 Mostly Clear with Freezing Fog 27 -2.8 25 -3.9 92 92 Calm 30.27 1025 0 0 0.00 0.00
3:53 am 03:53 Mostly Clear with Freezing Fog 27 -2.8 27 -2.8 100 100 Calm 30.24 1024 0 0 0.00 0.00
4:10 am 04:10 Mostly Clear with Freezing Fog 28 -2.2 26 -3.3 92 92 Calm 30.26 1025 0 0 0.00 0.00
4:31 am 04:31 Mostly Clear with Freezing Fog 28 -2.2 28 -2.2 100 100 Calm 30.26 1025 0 0 0.00 0.00
4:53 am 04:53 Mostly Clear with Freezing Fog 27 -2.8 27 -2.8 100 100 Calm 30.24 1024 0 0 0.00 0.00
5:53 am 05:53 Mostly Clear with Freezing Fog 28 -2.2 27 -2.8 96 96 Calm 30.24 1024 0 0 0.00 0.00
6:00 am 06:00 Mostly Clear with Freezing Fog 28 -2.2 28 -2.2 100 100 Calm 30.26 1025 0 0 0.00 0.00
6:08 am 06:08 Mostly Clear with Freezing Fog 29 -1.7 28 -2.2 96 96 Calm 30.26 1025 0 0 0.00 0.00
6:53 am 06:53 Mostly Clear with Freezing Fog 28 -2.2 28 -2.2 100 100 Calm 30.24 1024 0 0 0.00 0.00
7:53 am 07:53 Partly Cloudy with Freezing Fog 28 -2.2 27 -2.8 96 96 E 3 6 30.25 1024 0 0 0.00 0.00
8:53 am 08:53 Partly Cloudy with Freezing Fog 29 -1.7 29 -1.7 100 100 Calm 30.24 1024 0 0 0.00 0.00
9:53 am 09:53 Partly Cloudy with Fog 32 0 32 0 100 100 Calm 30.24 1024 0 0 0.00 0.00
10:10 am 10:10 Partly Cloudy with Fog 34 1.1 34 1.1 100 100 Calm 30.25 1024 0 0 0.00 0.00
10:18 am 10:18 Mostly Cloudy with Fog 35 1.7 35 1.7 100 100 Calm 30.25 1024 1 1 0.00 0.00
10:42 am 10:42 Partly Cloudy with Mist and Fog 38 3.3 37 2.8 97 97 Calm 30.23 1024 4 6 0.00 0.00
10:53 am 10:53 Sunny with Mist and Fog 39 3.9 37 2.8 93 93 Calm 30.21 1023 4 6 0.00 0.00
11:53 am 11:53 Sunny 49 9.4 37 2.8 63 63 WSW 3 6 30.17 1022 8 13 0.00 0.00
12:53 pm 12:53 Sunny 54 12.2 37 2.8 53 53 S 5 7 30.12 1020 10 16 0.00 0.00
1:53 pm 13:53 Sunny 56 13.3 34 1.1 43 43 SSW 3 6 30.08 1019 10 16 0.00 0.00
2:53 pm 14:53 Sunny 56 13.3 33 0.6 42 42 S 6 9 30.06 1018 10 16 0.00 0.00
3:53 pm 15:53 Sunny 55 12.8 34 1.1 45 45 ESE 3 6 30.04 1017 10 16 0.00 0.00
4:53 pm 16:53 Sunny 53 11.7 32 0 44 44 SSE 5 7 30.03 1017 10 16 0.00 0.00
5:53 pm 17:53 Clear 46 7.8 35 1.7 65 65 Calm 30.02 1017 10 16 0.00 0.00
6:53 pm 18:53 Clear 42 5.6 34 1.1 73 73 Calm 30.01 1016 10 16 0.00 0.00
7:53 pm 19:53 Clear 40 4.4 35 1.7 83 83 Calm 29.97 1015 10 16 0.00 0.00
8:53 pm 20:53 Clear 39 3.9 35 1.7 86 86 ENE 3 6 29.96 1015 10 16 0.00 0.00
9:53 pm 21:53 Clear 40 4.4 36 2.2 86 86 Calm 29.91 1013 9 14 0.00 0.00
10:53 pm 22:53 Cloudy with Light Rain 45 7.2 38 3.3 76 76 W 3 6 29.90 1013 6 10 0.01 0.13
11:53 pm 23:53 Cloudy with Light Rain 43 6.1 42 5.6 97 97 Calm 29.86 1011 4 6 0.03 0.76

Powered by AerisWeather